Regional Weather Roundup
Issued by NWS Green Bay, WI

Home | Current Version | Previous Version | Graphics & Text | Print | Product List | Glossary Off
Versions: 1 2 3 4 5 6 7 8 9 10 11 12 13 14 15 16 17 18 19 20 21 22 23 24 25 26 27 28 29 30 31 32 33 34 35 36 37 38 39 40 41 42 43 44 45 46 47 48 49 50

685
ASUS43 KGRB 292200
RWRGRB

NORTH-CENTRAL AND NORTHEAST WISCONSIN REGIONAL WEATHER ROUNDUP
NATIONAL WEATHER SERVICE GREEN BAY WI
500 PM CDT WED MAR 29 2017

WIZ005-009-010>012-018-019-292300-
NORTH CENTRAL WISCONSIN

CITY           SKY/WX    TMP DP  RH WIND       PRES   REMARKS
IRONWOOD       CLOUDY    49  30  48 E7        30.21F
MANITOWISH WTR NOT AVBL
ARBOR VITAE    NOT AVBL
EAGLE RIVER    NOT AVBL
LAND O LAKES   NOT AVBL
RHINELANDER    CLOUDY    47  29  49 E8        30.22F
PHILLIPS       NOT AVBL
ANTIGO         NOT AVBL
TOMAHAWK       NOT AVBL
MERRILL        NOT AVBL
$$

WIZ013-073-292300-
NORTHEAST WISCONSIN

CITY           SKY/WX    TMP DP  RH WIND       PRES   REMARKS
IRON MOUNTAIN  CLOUDY    45  25  45 E5        30.25F
MARINETTE      CLOUDY    39  26  59 E8        30.29F
$$

WIZ017-030-035>037-045-292300-
CENTRAL WISCONSIN

CITY           SKY/WX    TMP DP  RH WIND       PRES   REMARKS
MEDFORD        NOT AVBL
WAUSAU         CLOUDY    45  29  53 E10       30.21F
MOSINEE        NOT AVBL
MARSHFIELD     CLOUDY    44  31  60 SE9       30.20F
WISC RAPIDS    CLOUDY    45  32  60 E8        30.22F
STEVENS POINT  NOT AVBL
WAUPACA        NOT AVBL
SHAWANO        NOT AVBL
CLINTONVILLE   NOT AVBL
WAUTOMA        CLOUDY    44  34  67 NE15      30.20F
$$

WIZ038-039-048-051-292300-
FOX VALLEY

CITY           SKY/WX    TMP DP  RH WIND       PRES   REMARKS
NWS GREEN BAY  CLOUDY    40  33  76 NE14      30.25F
APPLETON       CLOUDY    43  28  56 NE15      30.21F
OSHKOSH        CLOUDY    42  31  64 NE10      30.20F
FOND DU LAC    CLOUDY    45  27  49 E12       30.20F
$$

WIZ022-050-052-292300-
EAST CENTRAL WISCONSIN

CITY           SKY/WX    TMP DP  RH WIND       PRES   REMARKS
EPHRAIM        NOT AVBL
WASHINGTON ISL NOT AVBL
STURGEON BAY   CLOUDY    39  28  64 NE9       30.25F
MANITOWOC      NOT AVBL
SHEBOYGAN      CLOUDY    37  32  82 NE18      30.21F
$$

LMZ563-521-522-541>543-292300-
LAKESHORE

STATION/POSITION TIME  TEMP    WIND        PRES    VSBY  WAVE
                       AIR SEA DIR/SP/G                  HT/PER
                 (UTC) (F)     (DEG/KT/KT) (MB)    (MI)  (FT/S)
SHEBOYGAN LKSHOR 2100   35      10/ 15/ 16 1025.2F
KEWAUNEE LKSHORE 2130   35      50/  6/ 10 1025.3F
NORTHPORT PIER   2130   37      80/  1/  6 1026.4F
SISTER BAY LKSHO 2051   41      40/  6/ 10   N/A
CHAMBERS ISLAND  2140   36      20/ 12/ 13 1025.1F
MENOMINEE LKSHOR 2118   34      10/  9/ 12 1025.2
$$




USA.gov is the U.S. government's official web portal to all federal, state and local government web resources and services.